GW4652 Weather Reports


time (UTC)temp
C
wind
direction
speed
KPH
gust
KPH
rain 1hr
cm
rain 24hr
cm
rain mn
cm
humidity
%
barometer
mb
20260506014507 17 137 0.0 0.0 0.00 0.00 0.00 61 1016.8
20260506013006 17 137 0.0 0.0 0.00 0.00 0.00 63 1016.8
20260506011506 17 134 0.0 0.0 0.00 0.00 0.00 65 1016.8
20260506010008 17 134 0.0 0.0 0.00 0.00 0.00 65 1016.8
20260506004506 17 134 0.0 0.0 0.00 0.00 0.00 67 1016.8
20260506003003 17 134 0.0 0.0 0.00 0.00 0.00 67 1016.9
20260506001506 17 134 0.0 0.0 0.00 0.00 0.00 65 1016.9
20260506000011 17 134 0.0 0.0 0.00 0.00 0.00 65 1017.0
20260505234519 17 134 0.0 0.0 0.00 0.00 0.00 65 1017.2
20260505233010 17 121 0.0 0.0 0.00 0.00 0.00 65 1017.2
20260505231503 17 121 0.0 0.0 0.00 0.00 0.00 63 1017.2
20260505230007 17 121 0.0 0.0 0.00 0.00 0.00 64 1017.3
20260505224505 17 121 0.0 0.0 0.00 0.00 0.00 64 1017.4
20260505223019 17 121 0.0 0.0 0.00 0.00 0.00 64 1017.5
20260505221523 17 121 0.0 0.0 0.00 0.00 0.00 64 1017.6
20260505220005 17 121 0.0 0.0 0.00 0.00 0.00 64 1017.6
20260505214520 17 121 0.0 0.0 0.00 0.00 0.00 64 1017.6
20260505213018 17 121 0.0 0.0 0.00 0.00 0.00 62 1017.6
20260505211512 17 198 0.0 4.8 0.00 0.00 0.00 65 1017.6
20260505210012 16 178 0.0 0.0 0.00 0.00 0.00 65 1017.7
20260505204508 16 172 0.0 0.0 0.00 0.00 0.00 66 1017.8
20260505203013 16 171 0.0 0.0 0.00 0.00 0.00 67 1018.0
20260505201517 16 75 0.0 3.2 0.00 0.00 0.00 67 1018.0
20260505200022 16 117 0.0 0.0 0.00 0.00 0.00 67 1018.0
20260505194522 16 123 0.0 3.2 0.00 0.00 0.00 67 1018.0
20260505193010 16 106 0.0 0.0 0.00 0.00 0.00 68 1018.1
20260505191518 15 106 0.0 0.0 0.00 0.00 0.00 69 1018.1
20260505190022 15 106 0.0 0.0 0.00 0.00 0.00 70 1018.1
20260505184512 15 105 0.0 0.0 0.00 0.00 0.00 70 1018.1
20260505183030 15 105 0.0 0.0 0.00 0.00 0.00 72 1018.1
20260505181523 -17 0.0 0.0 0.00 0.00 0.00 1018.0
20260505180026 -17 0.0 0.0 0.00 0.00 0.00 1018.1
20260505174524 13 1.6 6.4 0.00 0.00 0.00 1018.1
20260505173018 -17 0.0 0.0 0.00 0.00 0.00 1018.0
20260505171515 -17 0.0 0.0 0.00 0.00 0.00 1017.8
20260505170015 -17 0.0 0.0 0.00 0.00 0.00 1017.8
20260505164513 -17 0.0 0.0 0.00 0.00 0.00 1017.8
20260505163016 -17 0.0 0.0 0.00 0.00 0.00 1017.8
20260505161506 -17 0.0 0.0 0.00 0.00 0.00 1017.6
20260505153004 -17 0.0 0.0 0.00 0.00 0.00 1017.6
20260505151519 -17 0.0 0.0 0.00 0.00 0.00 1017.6
20260505124524 11 219 0.0 1.6 0.00 0.00 0.00 89 1016.5
20260505123006 11 261 0.0 1.6 0.00 0.00 0.00 89 1016.5
20260505121512 11 266 0.0 3.2 0.00 0.00 0.00 89 1016.5
20260505120028 11 244 0.0 4.8 0.00 0.00 0.00 90 1016.3
20260505114508 11 260 1.6 3.2 0.00 0.00 0.00 90 1016.3
20260505113024 11 253 0.0 4.8 0.00 0.00 0.00 90 1016.3
20260505111525 11 254 0.0 1.6 0.00 0.00 0.00 90 1016.3
20260505101522 11 236 1.6 6.4 0.00 0.00 0.00 89 1015.9
20260505100014 11 192 0.0 8.0 0.00 0.00 0.00 89 1015.9
20260505094516 11 227 0.0 9.7 0.00 0.00 0.00 90 1015.9
20260505093018 11 207 1.6 9.7 0.00 0.00 0.00 90 1015.8
20260505091522 11 218 0.0 6.4 0.00 0.00 0.00 90 1015.8
20260505090023 11 214 0.0 4.8 0.00 0.00 0.00 90 1015.7
20260505084524 11 249 3.2 9.7 0.00 0.00 0.00 90 1015.7
20260505083020 11 201 3.2 9.7 0.00 0.00 0.00 89 1015.6
20260505081516 11 204 6.4 12.9 0.00 0.00 0.00 89 1015.5
20260505080015 11 217 1.6 9.7 0.00 0.00 0.00 89 1015.3
20260505074527 11 220 4.8 9.7 0.00 0.00 0.00 88 1015.2
20260505073026 11 219 3.2 9.7 0.00 0.00 0.00 88 1015.1
20260505071529 12 201 6.4 14.5 0.00 0.00 0.00 87 1015.0
20260505070026 12 238 4.8 12.9 0.00 0.00 0.00 86 1014.7
20260505064522 12 223 3.2 9.7 0.00 0.00 0.00 86 1014.7
20260505063010 12 200 4.8 11.3 0.00 0.00 0.00 86 1014.5
20260505061517 12 215 1.6 9.7 0.00 0.00 0.00 85 1014.5
20260505060034 13 207 4.8 11.3 0.00 0.00 0.00 84 1014.3
20260505054517 13 215 3.2 11.3 0.00 0.00 0.00 83 1014.3
20260505053004 14 212 4.8 17.7 0.00 0.00 0.00 82 1014.1
20260505051516 15 215 4.8 22.5 0.00 0.00 0.00 81 1014.1
20260505041507 16 216 3.2 16.1 0.00 0.00 0.00 75 1013.3
20260505040010 17 248 6.4 14.5 0.00 0.00 0.00 74 1013.1
20260505034516 17 268 6.4 12.9 0.00 0.00 0.00 73 1012.8
20260505033015 18 207 4.8 14.5 0.00 0.00 0.00 73 1012.6
20260505031513 18 241 4.8 16.1 0.00 0.00 0.00 72 1012.3
20260505030007 20 279 0.0 1.6 0.00 0.00 0.00 63 1012.1
20260505024510 20 77 0.0 0.0 0.00 0.00 0.00 62 1011.9
20260505023027 20 128 0.0 0.0 0.00 0.00 0.00 61 1011.9
20260505021514 21 116 0.0 6.4 0.00 0.00 0.00 59 1011.9
20260505020016 21 107 0.0 4.8 0.00 0.00 0.00 59 1011.8